Time,TemperatureF,DewpointF,PressureIn,WindDirection,WindDirectionDegrees,WindSpeedMPH,WindSpeedGustMPH,Humidity,HourlyPrecipIn,Conditions,Clouds,dailyrainin,SoftwareType,DateUTC
2013-02-02 00:00:00,21.0,8.0,-100.00,North,-999,-999.0,-999.0,56,-99.99,,,-99.99,,2013-02-02 07:00:00,
2013-02-02 00:32:00,21.0,8.0,-100.00,North,-999,-999.0,-999.0,56,-99.99,,,-99.99,,2013-02-02 07:32:00,
2013-02-02 00:42:00,21.0,8.0,-100.00,North,-999,-999.0,-999.0,56,-99.99,,,-99.99,,2013-02-02 07:42:00,
2013-02-02 00:51:00,21.0,8.0,-100.00,North,-999,-999.0,-999.0,56,-99.99,,,-99.99,,2013-02-02 07:51:00,
2013-02-02 01:00:00,21.0,7.0,-100.00,North,-999,-999.0,-999.0,54,-99.99,,,-99.99,,2013-02-02 08:00:00,
2013-02-02 01:32:00,21.0,7.0,-100.00,North,-999,-999.0,-999.0,54,-99.99,,,-99.99,,2013-02-02 08:32:00,
2013-02-02 01:42:00,21.0,7.0,-100.00,North,-999,-999.0,-999.0,54,-99.99,,,-99.99,,2013-02-02 08:42:00,
2013-02-02 01:53:00,21.0,7.0,-100.00,North,-999,-999.0,-999.0,54,-99.99,,,-99.99,,2013-02-02 08:53:00,
2013-02-02 02:00:00,21.0,7.0,-100.00,North,-999,-999.0,-999.0,52,-99.99,,,-99.99,,2013-02-02 09:00:00,
2013-02-02 02:32:00,21.0,7.0,-100.00,North,-999,-999.0,-999.0,52,-99.99,,,-99.99,,2013-02-02 09:32:00,
2013-02-02 02:42:00,21.0,7.0,-100.00,North,-999,-999.0,-999.0,52,-99.99,,,-99.99,,2013-02-02 09:42:00,
2013-02-02 02:52:00,21.0,7.0,-100.00,North,-999,-999.0,-999.0,52,-99.99,,,-99.99,,2013-02-02 09:52:00,
2013-02-02 03:00:00,21.0,6.0,-100.00,North,-999,-999.0,-999.0,52,-99.99,,,-99.99,,2013-02-02 10:00:00,
2013-02-02 03:32:00,21.0,6.0,-100.00,North,-999,-999.0,-999.0,52,-99.99,,,-99.99,,2013-02-02 10:32:00,
2013-02-02 03:42:00,21.0,6.0,-100.00,North,-999,-999.0,-999.0,52,-99.99,,,-99.99,,2013-02-02 10:42:00,
2013-02-02 03:52:00,21.0,6.0,-100.00,North,-999,-999.0,-999.0,52,-99.99,,,-99.99,,2013-02-02 10:52:00,
2013-02-02 04:00:00,21.0,4.0,-100.00,North,-999,-999.0,-999.0,46,-99.99,,,-99.99,,2013-02-02 11:00:00,
2013-02-02 04:32:00,21.0,4.0,-100.00,North,-999,-999.0,-999.0,46,-99.99,,,-99.99,,2013-02-02 11:32:00,
2013-02-02 04:42:00,21.0,4.0,-100.00,North,-999,-999.0,-999.0,46,-99.99,,,-99.99,,2013-02-02 11:42:00,
2013-02-02 04:52:00,21.0,4.0,-100.00,North,-999,-999.0,-999.0,46,-99.99,,,-99.99,,2013-02-02 11:52:00,
2013-02-02 05:00:00,20.0,4.0,-100.00,North,-999,-999.0,-999.0,48,-99.99,,,-99.99,,2013-02-02 12:00:00,
2013-02-02 05:32:00,20.0,4.0,-100.00,North,-999,-999.0,-999.0,48,-99.99,,,-99.99,,2013-02-02 12:32:00,
2013-02-02 05:42:00,20.0,4.0,-100.00,North,-999,-999.0,-999.0,48,-99.99,,,-99.99,,2013-02-02 12:42:00,
2013-02-02 05:52:00,20.0,4.0,-100.00,North,-999,-999.0,-999.0,48,-99.99,,,-99.99,,2013-02-02 12:52:00,
2013-02-02 06:00:00,20.0,5.0,-100.00,North,-999,-999.0,-999.0,50,-99.99,,,-99.99,,2013-02-02 13:00:00,
2013-02-02 06:33:00,20.0,5.0,-100.00,North,-999,-999.0,-999.0,50,-99.99,,,-99.99,,2013-02-02 13:33:00,
2013-02-02 06:42:00,20.0,5.0,-100.00,North,-999,-999.0,-999.0,50,-99.99,,,-99.99,,2013-02-02 13:42:00,
2013-02-02 06:52:00,20.0,5.0,-100.00,North,-999,-999.0,-999.0,50,-99.99,,,-99.99,,2013-02-02 13:52:00,
2013-02-02 07:00:00,21.0,2.0,-100.00,North,-999,-999.0,-999.0,41,-99.99,,,-99.99,,2013-02-02 14:00:00,
2013-02-02 07:33:00,21.0,2.0,-100.00,North,-999,-999.0,-999.0,41,-99.99,,,-99.99,,2013-02-02 14:33:00,
2013-02-02 07:42:00,21.0,2.0,-100.00,North,-999,-999.0,-999.0,41,-99.99,,,-99.99,,2013-02-02 14:42:00,
2013-02-02 07:52:00,21.0,2.0,-100.00,North,-999,-999.0,-999.0,41,-99.99,,,-99.99,,2013-02-02 14:52:00,
2013-02-02 08:00:00,22.0,1.0,-100.00,North,-999,-999.0,-999.0,39,-99.99,,,-99.99,,2013-02-02 15:00:00,
2013-02-02 08:33:00,22.0,1.0,-100.00,North,-999,-999.0,-999.0,39,-99.99,,,-99.99,,2013-02-02 15:33:00,
2013-02-02 08:42:00,22.0,1.0,-100.00,North,-999,-999.0,-999.0,39,-99.99,,,-99.99,,2013-02-02 15:42:00,
2013-02-02 08:52:00,22.0,1.0,-100.00,North,-999,-999.0,-999.0,39,-99.99,,,-99.99,,2013-02-02 15:52:00,
2013-02-02 09:00:00,29.0,-1.0,-100.00,North,-999,-999.0,-999.0,26,-99.99,,,-99.99,,2013-02-02 16:00:00,
2013-02-02 09:32:00,29.0,-1.0,-100.00,North,-999,-999.0,-999.0,26,-99.99,,,-99.99,,2013-02-02 16:32:00,
2013-02-02 09:42:00,29.0,-1.0,-100.00,North,-999,-999.0,-999.0,26,-99.99,,,-99.99,,2013-02-02 16:42:00,
2013-02-02 09:52:00,29.0,-1.0,-100.00,North,-999,-999.0,-999.0,26,-99.99,,,-99.99,,2013-02-02 16:52:00,
2013-02-02 10:00:00,35.0,-2.0,-100.00,North,-999,-999.0,-999.0,19,-99.99,,,-99.99,,2013-02-02 17:00:00,
2013-02-02 10:33:00,35.0,-2.0,-100.00,North,-999,-999.0,-999.0,19,-99.99,,,-99.99,,2013-02-02 17:33:00,
2013-02-02 10:42:00,35.0,-2.0,-100.00,North,-999,-999.0,-999.0,19,-99.99,,,-99.99,,2013-02-02 17:42:00,
2013-02-02 10:52:00,35.0,-2.0,-100.00,North,-999,-999.0,-999.0,19,-99.99,,,-99.99,,2013-02-02 17:52:00,
2013-02-02 11:00:00,42.0,-2.0,-100.00,North,-999,-999.0,-999.0,14,-99.99,,,-99.99,,2013-02-02 18:00:00,
2013-02-02 11:32:00,42.0,-2.0,-100.00,North,-999,-999.0,-999.0,14,-99.99,,,-99.99,,2013-02-02 18:32:00,
2013-02-02 11:42:00,42.0,-2.0,-100.00,North,-999,-999.0,-999.0,14,-99.99,,,-99.99,,2013-02-02 18:42:00,
2013-02-02 11:52:00,42.0,-2.0,-100.00,North,-999,-999.0,-999.0,14,-99.99,,,-99.99,,2013-02-02 18:52:00,
2013-02-02 12:00:00,43.0,-1.0,-100.00,North,-999,-999.0,-999.0,15,-99.99,,,-99.99,,2013-02-02 19:00:00,
2013-02-02 12:32:00,43.0,-1.0,-100.00,North,-999,-999.0,-999.0,15,-99.99,,,-99.99,,2013-02-02 19:32:00,
2013-02-02 12:42:00,43.0,-1.0,-100.00,North,-999,-999.0,-999.0,15,-99.99,,,-99.99,,2013-02-02 19:42:00,
2013-02-02 12:52:00,43.0,-1.0,-100.00,North,-999,-999.0,-999.0,15,-99.99,,,-99.99,,2013-02-02 19:52:00,
2013-02-02 13:00:00,36.0,-2.0,-100.00,North,-999,-999.0,-999.0,19,-99.99,,,-99.99,,2013-02-02 20:00:00,
2013-02-02 13:32:00,36.0,-2.0,-100.00,North,-999,-999.0,-999.0,19,-99.99,,,-99.99,,2013-02-02 20:32:00,
2013-02-02 13:42:00,36.0,-2.0,-100.00,North,-999,-999.0,-999.0,19,-99.99,,,-99.99,,2013-02-02 20:42:00,
2013-02-02 13:52:00,36.0,-2.0,-100.00,North,-999,-999.0,-999.0,19,-99.99,,,-99.99,,2013-02-02 20:52:00,
2013-02-02 14:00:00,40.0,-2.0,-100.00,North,-999,-999.0,-999.0,16,-99.99,,,-99.99,,2013-02-02 21:00:00,
2013-02-02 14:32:00,40.0,-2.0,-100.00,North,-999,-999.0,-999.0,16,-99.99,,,-99.99,,2013-02-02 21:32:00,
2013-02-02 14:42:00,40.0,-2.0,-100.00,North,-999,-999.0,-999.0,16,-99.99,,,-99.99,,2013-02-02 21:42:00,
2013-02-02 14:52:00,40.0,-2.0,-100.00,North,-999,-999.0,-999.0,16,-99.99,,,-99.99,,2013-02-02 21:52:00,
2013-02-02 15:00:00,42.0,2.0,-100.00,North,-999,-999.0,-999.0,18,-99.99,,,-99.99,,2013-02-02 22:00:00,
2013-02-02 15:32:00,42.0,2.0,-100.00,North,-999,-999.0,-999.0,18,-99.99,,,-99.99,,2013-02-02 22:32:00,
2013-02-02 15:42:00,42.0,2.0,-100.00,North,-999,-999.0,-999.0,18,-99.99,,,-99.99,,2013-02-02 22:42:00,
2013-02-02 15:52:00,42.0,2.0,-100.00,North,-999,-999.0,-999.0,18,-99.99,,,-99.99,,2013-02-02 22:52:00,
2013-02-02 16:00:00,29.0,6.0,-100.00,North,-999,-999.0,-999.0,37,-99.99,,,-99.99,,2013-02-02 23:00:00,
2013-02-02 16:32:00,29.0,6.0,-100.00,North,-999,-999.0,-999.0,37,-99.99,,,-99.99,,2013-02-02 23:32:00,
2013-02-02 16:42:00,29.0,6.0,-100.00,North,-999,-999.0,-999.0,37,-99.99,,,-99.99,,2013-02-02 23:42:00,
2013-02-02 16:52:00,29.0,6.0,-100.00,North,-999,-999.0,-999.0,37,-99.99,,,-99.99,,2013-02-02 23:52:00,
2013-02-02 17:00:00,28.0,1.0,-100.00,North,-999,-999.0,-999.0,29,-99.99,,,-99.99,,2013-02-03 00:00:00,
2013-02-02 17:32:00,28.0,1.0,-100.00,North,-999,-999.0,-999.0,29,-99.99,,,-99.99,,2013-02-03 00:32:00,
2013-02-02 17:42:00,28.0,1.0,-100.00,North,-999,-999.0,-999.0,29,-99.99,,,-99.99,,2013-02-03 00:42:00,
2013-02-02 17:52:00,28.0,1.0,-100.00,North,-999,-999.0,-999.0,29,-99.99,,,-99.99,,2013-02-03 00:52:00,
2013-02-02 18:00:00,27.0,4.0,-100.00,North,-999,-999.0,-999.0,35,-99.99,,,-99.99,,2013-02-03 01:00:00,
2013-02-02 18:32:00,27.0,4.0,-100.00,North,-999,-999.0,-999.0,35,-99.99,,,-99.99,,2013-02-03 01:32:00,
2013-02-02 18:42:00,27.0,4.0,-100.00,North,-999,-999.0,-999.0,35,-99.99,,,-99.99,,2013-02-03 01:42:00,
2013-02-02 18:52:00,27.0,4.0,-100.00,North,-999,-999.0,-999.0,35,-99.99,,,-99.99,,2013-02-03 01:52:00,
2013-02-02 19:00:00,27.0,2.0,-100.00,North,-999,-999.0,-999.0,33,-99.99,,,-99.99,,2013-02-03 02:00:00,
2013-02-02 19:32:00,27.0,2.0,-100.00,North,-999,-999.0,-999.0,33,-99.99,,,-99.99,,2013-02-03 02:32:00,
2013-02-02 19:42:00,27.0,2.0,-100.00,North,-999,-999.0,-999.0,33,-99.99,,,-99.99,,2013-02-03 02:42:00,
2013-02-02 19:52:00,27.0,2.0,-100.00,North,-999,-999.0,-999.0,33,-99.99,,,-99.99,,2013-02-03 02:52:00,
2013-02-02 20:00:00,28.0,1.0,-100.00,North,-999,-999.0,-999.0,29,-99.99,,,-99.99,,2013-02-03 03:00:00,
2013-02-02 20:32:00,28.0,1.0,-100.00,North,-999,-999.0,-999.0,29,-99.99,,,-99.99,,2013-02-03 03:32:00,
2013-02-02 20:42:00,28.0,1.0,-100.00,North,-999,-999.0,-999.0,29,-99.99,,,-99.99,,2013-02-03 03:42:00,
2013-02-02 20:52:00,28.0,1.0,-100.00,North,-999,-999.0,-999.0,29,-99.99,,,-99.99,,2013-02-03 03:52:00,
2013-02-02 21:00:00,28.0,-8.0,-100.00,North,-999,-999.0,-999.0,19,-99.99,,,-99.99,,2013-02-03 04:00:00,
2013-02-02 21:32:00,28.0,-8.0,-100.00,North,-999,-999.0,-999.0,19,-99.99,,,-99.99,,2013-02-03 04:32:00,
2013-02-02 21:42:00,28.0,-8.0,-100.00,North,-999,-999.0,-999.0,19,-99.99,,,-99.99,,2013-02-03 04:42:00,
2013-02-02 21:52:00,28.0,-8.0,-100.00,North,-999,-999.0,-999.0,19,-99.99,,,-99.99,,2013-02-03 04:52:00,
2013-02-02 22:00:00,29.0,-10.0,-100.00,North,-999,-999.0,-999.0,17,-99.99,,,-99.99,,2013-02-03 05:00:00,
2013-02-02 22:32:00,29.0,-10.0,-100.00,North,-999,-999.0,-999.0,17,-99.99,,,-99.99,,2013-02-03 05:32:00,
2013-02-02 22:42:00,29.0,-10.0,-100.00,North,-999,-999.0,-999.0,17,-99.99,,,-99.99,,2013-02-03 05:42:00,
2013-02-02 22:52:00,29.0,-10.0,-100.00,North,-999,-999.0,-999.0,17,-99.99,,,-99.99,,2013-02-03 05:52:00,
2013-02-02 23:00:00,29.0,-11.0,-100.00,North,-999,-999.0,-999.0,16,-99.99,,,-99.99,,2013-02-03 06:00:00,
2013-02-02 23:32:00,29.0,-11.0,-100.00,North,-999,-999.0,-999.0,16,-99.99,,,-99.99,,2013-02-03 06:32:00,
2013-02-02 23:42:00,29.0,-11.0,-100.00,North,-999,-999.0,-999.0,16,-99.99,,,-99.99,,2013-02-03 06:42:00,
2013-02-02 23:52:00,29.0,-11.0,-100.00,North,-999,-999.0,-999.0,16,-99.99,,,-99.99,,2013-02-03 06:52:00,